• In Hungary
  • List of Countries
  • For 7 days
  • Water Temperature
  • Satellite Maps
  • Weather Map
  • News
  • Weather Widgets
  • user-avatar
    Login

    Hourly Weather Delhi

    Today, 22 June, Friday

    Time Temperature Precipitation Wind Pressure Humidity
    00:00 +40°C° 0 mm 1 mps 729 mmHg 27%
    01:00 +40°C° 0 mm 1 mps 729 mmHg 28%
    02:00 +39°C° 0 mm 1 mps 729 mmHg 28%
    03:00 +39°C° 0 mm 1 mps 729 mmHg 29%
    04:00 +39°C° 0 mm 1 mps 729 mmHg 30%
    05:00 +35°C° 0 mm 0 mps 730 mmHg 31%
    06:00 +39°C° 0 mm 1 mps 730 mmHg 29%
    07:00 +40°C° 0 mm 1 mps 730 mmHg 27%
    08:00 +41°C° 0 mm 1 mps 731 mmHg 25%
    09:00 +43°C° 0 mm 1 mps 730 mmHg 23%
    10:00 +44°C° 0 mm 1 mps 730 mmHg 20%
    11:00 +42°C° 0 mm 0 mps 730 mmHg 20%
    12:00 +46°C° 0 mm 1 mps 730 mmHg 18%
    13:00 +46°C° 0 mm 1 mps 729 mmHg 16%
    14:00 +48°C° 0 mm 2 mps 729 mmHg 15%
    15:00 +48°C° 0 mm 2 mps 728 mmHg 14%
    16:00 +48°C° 0 mm 2 mps 728 mmHg 13%
    17:00 +48°C° 0 mm 2 mps 727 mmHg 13%
    18:00 +46°C° 0 mm 1 mps 727 mmHg 14%
    19:00 +45°C° 0 mm 1 mps 727 mmHg 14%
    20:00 +44°C° 0 mm 1 mps 727 mmHg 15%
    21:00 +44°C° 0 mm 1 mps 727 mmHg 15%
    22:00 +43°C° 0 mm 1 mps 727 mmHg 15%
    23:00 +43°C° 0 mm 1 mps 728 mmHg 16%

    Tomorrow, 23 June, Saturday

    Time Temperature Precipitation Wind Pressure Humidity
    00:00 +42°C° 0 mm 1 mps 727 mmHg 16%
    01:00 +42°C° 0 mm 1 mps 727 mmHg 17%
    02:00 +41°C° 0 mm 1 mps 727 mmHg 17%
    03:00 +41°C° 0 mm 1 mps 727 mmHg 18%
    04:00 +40°C° 0 mm 1 mps 728 mmHg 19%
    05:00 +39°C° 0 mm 1 mps 728 mmHg 20%
    06:00 +41°C° 0 mm 2 mps 728 mmHg 19%
    07:00 +42°C° 0 mm 2 mps 729 mmHg 18%
    08:00 +44°C° 0 mm 3 mps 729 mmHg 18%
    09:00 +46°C° 0 mm 2 mps 729 mmHg 16%
    10:00 +47°C° 0 mm 2 mps 729 mmHg 15%
    11:00 +48°C° 0 mm 2 mps 729 mmHg 13%
    12:00 +49°C° 0 mm 2 mps 728 mmHg 13%
    13:00 +49°C° 0 mm 2 mps 728 mmHg 12%
    14:00 +50°C° 0 mm 3 mps 727 mmHg 12%
    15:00 +50°C° 0 mm 3 mps 727 mmHg 12%
    16:00 +50°C° 0 mm 4 mps 726 mmHg 12%
    17:00 +50°C° 0 mm 4 mps 726 mmHg 12%
    18:00 +49°C° 0 mm 4 mps 726 mmHg 12%
    19:00 +47°C° 0 mm 3 mps 726 mmHg 13%
    20:00 +46°C° 0 mm 3 mps 726 mmHg 14%
    21:00 +45°C° 0 mm 3 mps 726 mmHg 15%
    22:00 +44°C° 0 mm 3 mps 726 mmHg 15%
    23:00 +44°C° 0 mm 3 mps 726 mmHg 16%

    Day after tomorrow, 24 June, Sunday

    Time Temperature Precipitation Wind Pressure Humidity
    00:00 +43°C° 0 mm 3 mps 726 mmHg 16%
    01:00 +42°C° 0 mm 3 mps 726 mmHg 17%
    02:00 +42°C° 0 mm 3 mps 726 mmHg 17%
    03:00 +40°C° 0 mm 3 mps 726 mmHg 18%
    04:00 +39°C° 0 mm 3 mps 726 mmHg 20%
    05:00 +39°C° 0 mm 2 mps 726 mmHg 21%
    06:00 +40°C° 0 mm 3 mps 727 mmHg 19%
    07:00 +43°C° 0 mm 3 mps 727 mmHg 18%
    08:00 +45°C° 0 mm 4 mps 728 mmHg 16%
    09:00 +47°C° 0 mm 4 mps 728 mmHg 16%
    10:00 +48°C° 0 mm 5 mps 728 mmHg 15%
    11:00 +51°C° 0 mm 6 mps 728 mmHg 15%
    12:00 +51°C° 0 mm 6 mps 727 mmHg 14%
    13:00 +52°C° 0 mm 6 mps 727 mmHg 14%
    14:00 +52°C° 0 mm 6 mps 726 mmHg 13%
    15:00 +52°C° 0 mm 6 mps 726 mmHg 14%
    16:00 +51°C° 0 mm 6 mps 726 mmHg 14%
    17:00 +51°C° 0 mm 7 mps 725 mmHg 15%
    18:00 +50°C° 0 mm 7 mps 725 mmHg 17%
    19:00 +49°C° 0 mm 7 mps 725 mmHg 20%
    20:00 +46°C° 0 mm 7 mps 725 mmHg 23%
    21:00 +46°C° 0 mm 7 mps 726 mmHg 23%
    22:00 +45°C° 0 mm 6 mps 726 mmHg 24%
    23:00 +45°C° 0 mm 6 mps 726 mmHg 24%

    25 June, Monday

    Time Temperature Precipitation Wind Pressure Humidity
    00:00 +44°C° 0 mm 6 mps 726 mmHg 23%
    01:00 +44°C° 0 mm 6 mps 726 mmHg 23%
    02:00 +42°C° 0 mm 6 mps 726 mmHg 22%
    03:00 +42°C° 0 mm 6 mps 726 mmHg 25%
    04:00 +41°C° 0 mm 5 mps 726 mmHg 27%
    05:00 +41°C° 0 mm 5 mps 726 mmHg 29%
    06:00 +42°C° 0 mm 5 mps 726 mmHg 29%
    07:00 +42°C° 0 mm 5 mps 727 mmHg 28%
    08:00 +44°C° 0 mm 6 mps 727 mmHg 27%
    09:00 +45°C° 0 mm 6 mps 727 mmHg 26%
    10:00 +46°C° 0 mm 6 mps 727 mmHg 24%
    11:00 +47°C° 0 mm 6 mps 727 mmHg 23%
    12:00 +47°C° 0 mm 6 mps 727 mmHg 22%
    13:00 +48°C° 0 mm 6 mps 726 mmHg 21%
    14:00 +48°C° 0 mm 6 mps 725 mmHg 20%
    15:00 +48°C° 0 mm 6 mps 725 mmHg 21%
    16:00 +47°C° 0 mm 6 mps 725 mmHg 23%
    17:00 +47°C° 0 mm 6 mps 724 mmHg 24%
    18:00 +46°C° 0.1 mm 6 mps 724 mmHg 25%
    19:00 +46°C° 0.1 mm 6 mps 725 mmHg 26%
    20:00 +45°C° 0.1 mm 5 mps 725 mmHg 27%
    21:00 +45°C° 0 mm 5 mps 725 mmHg 27%
    22:00 +43°C° 0 mm 5 mps 725 mmHg 27%
    23:00 +43°C° 0 mm 5 mps 726 mmHg 28%

    26 June, Tuesday

    Time Temperature Precipitation Wind Pressure Humidity
    00:00 +42°C° 0.1 mm 5 mps 725 mmHg 29%
    01:00 +42°C° 0.1 mm 5 mps 725 mmHg 30%
    02:00 +42°C° 0.1 mm 5 mps 725 mmHg 31%
    03:00 +41°C° 0 mm 6 mps 725 mmHg 31%
    04:00 +41°C° 0 mm 6 mps 725 mmHg 32%
    05:00 +40°C° 0 mm 6 mps 726 mmHg 33%
    06:00 +41°C° 0 mm 6 mps 726 mmHg 32%
    07:00 +42°C° 0 mm 6 mps 727 mmHg 31%
    08:00 +44°C° 0 mm 6 mps 727 mmHg 29%
    09:00 +45°C° 0 mm 6 mps 727 mmHg 27%
    10:00 +47°C° 0 mm 5 mps 727 mmHg 24%
    11:00 +48°C° 0 mm 4 mps 727 mmHg 21%
    12:00 +48°C° 0 mm 4 mps 727 mmHg 20%
    13:00 +47°C° 0 mm 3 mps 726 mmHg 20%
    14:00 +48°C° 0 mm 3 mps 726 mmHg 19%
    15:00 +47°C° 0 mm 3 mps 726 mmHg 21%
    16:00 +46°C° 0 mm 3 mps 725 mmHg 22%
    17:00 +46°C° 0 mm 3 mps 725 mmHg 23%
    18:00 +45°C° 0.2 mm 4 mps 725 mmHg 26%
    19:00 +43°C° 0.2 mm 5 mps 726 mmHg 29%
    20:00 +42°C° 0.2 mm 6 mps 726 mmHg 32%
    21:00 +42°C° 0.1 mm 6 mps 726 mmHg 34%
    22:00 +41°C° 0.1 mm 6 mps 726 mmHg 36%
    23:00 +40°C° 0.1 mm 6 mps 726 mmHg 37%

    27 June, Wednesday

    Time Temperature Precipitation Wind Pressure Humidity
    00:00 +40°C° 0.2 mm 5 mps 726 mmHg 38%
    01:00 +38°C° 0.2 mm 4 mps 726 mmHg 39%
    02:00 +38°C° 0.2 mm 4 mps 727 mmHg 39%
    03:00 +37°C° 1.1 mm 4 mps 727 mmHg 41%
    04:00 +37°C° 1.1 mm 3 mps 727 mmHg 44%
    05:00 +36°C° 1.1 mm 3 mps 727 mmHg 46%
    06:00 +36°C° 0.9 mm 3 mps 728 mmHg 44%
    07:00 +37°C° 0.9 mm 4 mps 728 mmHg 43%
    08:00 +38°C° 0.9 mm 4 mps 729 mmHg 41%
    09:00 +40°C° 0.2 mm 4 mps 729 mmHg 39%
    10:00 +41°C° 0.2 mm 4 mps 729 mmHg 37%
    11:00 +43°C° 0.2 mm 4 mps 729 mmHg 34%
    12:00 +43°C° 0 mm 4 mps 729 mmHg 34%
    13:00 +43°C° 0 mm 4 mps 729 mmHg 33%
    14:00 +43°C° 0 mm 4 mps 728 mmHg 33%
    15:00 +43°C° 0.2 mm 4 mps 728 mmHg 34%
    16:00 +43°C° 0.2 mm 4 mps 728 mmHg 35%
    17:00 +42°C° 0.2 mm 4 mps 728 mmHg 36%
    18:00 +41°C° 0.5 mm 4 mps 728 mmHg 39%
    19:00 +39°C° 0.5 mm 3 mps 728 mmHg 43%
    20:00 +38°C° 0.5 mm 3 mps 729 mmHg 46%
    21:00 +37°C° 1.2 mm 3 mps 729 mmHg 50%
    22:00 +36°C° 1.2 mm 3 mps 729 mmHg 54%
    23:00 +36°C° 1.2 mm 3 mps 729 mmHg 57%
    Show more